Vertical_Velocity
-1 1 1 -1 -0 -1 -1 -1 -3 -3 -2 -1 -0 1 3 3 4 1 3 2 8 -1 20 -10 -7 -22 -6 -4 -25 25 10 -13 6 -7 1 -7 2 -10 -1 3 -4 2 -10 38 26 -11 -6 -1 -4 -7 25 5 3 -0
1 -0 -1 0 1 2 1 -1 -5 -3 -0 -1 -1 5 3 4 6 9 -18 16 11 -8 17 -4 12 2 3 0 -1 1 2 27 4 -6 -5 -8 2 10 9 -8 -10 -21 8 -2 31 -6 7 9 1 6 -8 6 14 -7
-1 1 -3 -6 -3 0 -3 -4 -4 -2 0 1 7 -0 3 -5 -9 -8 12 11 -6 3 38 -7 -27 3 -4 -3 4 3 2 12 -8 -3 -1 4 -12 17 -7 -8 -3 0 -12 9 -0 25 9 -1 -9 6 2 -1 -23 30
-6 -3 -1 -1 -2 1 0 -2 -2 -2 -0 1 -7 -4 -3 -0 3 4 5 6 -2 9 -3 1 24 0 3 -0 -5 -0 10 7 0 -12 -7 5 3 1 -6 5 5 4 -3 -16 -8 6 -2 -4 14 -1 -7 5 2 2
6 0 -1 -2 -0 -1 1 -1 -2 -0 -0 -1 -1 -4 -2 2 11 19 1 3 8 31 -4 18 11 -7 0 3 -3 2 5 -4 2 -5 -11 -15 4 2 7 2 -9 -2 -1 -7 5 1 -7 10 1 5 6 -0 -1 4
-2 -2 3 1 -3 -1 2 6 -5 -1 -0 1 1 -2 2 4 12 -3 -13 5 12 1 11 5 2 -4 -8 4 6 3 2 -1 19 3 2 -2 9 1 -3 -5 18 23 9 -14 -15 -4 2 28 5 -13 17 7 16 9
-2 2 2 4 -6 1 0 0 2 2 -2 -2 1 2 5 6 -1 -5 -3 12 -11 15 5 -0 1 -1 0 -0 -2 -6 3 -1 5 -1 -0 2 0 1 4 -1 10 6 4 -0 -2 -3 1 3 8 2 -2 1 -0 1
-7 -2 -5 -2 2 1 0 1 2 4 2 1 -1 2 -2 1 8 7 13 19 -3 -9 -5 -2 -3 -5 -5 -1 5 5 3 3 7 16 14 7 14 12 -5 -7 8 -4 -1 5 -2 -6 -2 -3 -5 -5 1 3 -1 -4
-3 0 3 0 1 1 0 -2 -0 4 1 1 -1 -0 2 1 -2 1 2 6 3 2 3 1 2 -0 3 1 5 2 -1 -5 -3 12 41 3 14 11 9 3 2 6 -1 -0 -6 -4 2 3 -0 -5 1 5 2 4
2 -0 1 -1 -3 3 5 5 6 -2 -1 0 -2 -3 -2 -4 1 2 8 5 4 1 1 1 3 -0 1 0 -1 3 -2 0 -5 -3 14 -4 10 3 -1 -2 0 2 2 2 -2 -2 -0 -5 -1 9 4 2 -2 -1
2 1 1 -1 0 -0 -3 -3 -0 5 9 8 5 5 -4 -0 2 -1 -0 1 6 2 5 -3 -6 0 -0 -4 1 3 2 5 1 7 2 -8 -9 -6 2 3 1 -1 -5 -2 2 1 0 0 2 3 2 2 2 1
0 1 3 0 0 3 4 4 6 5 -1 -3 2 4 5 3 4 4 3 1 -5 -5 -0 5 4 2 5 2 -3 1 2 1 5 4 -11 -14 -4 3 4 4 3 4 5 5 4 3 -0 -1 0 -0 -1 -2 -2 -1
0 1 0 -0 -1 -2 -1 1 2 1 1 1 -4 -2 -1 -3 -4 -2 -4 -4 -4 -9 3 8 4 5 3 3 4 1 1 -1 2 -9 -10 3 8 9 5 3 3 4 2 1 3 3 1 -0 1 1 2 2 1 1
1 0 1 0 1 0 -1 -1 -1 -2 1 -3 -2 3 1 -3 -0 -1 -1 -3 -2 -5 -3 5 19 5 1 -1 -0 -2 0 19 -12 -4 1 7 6 6 4 9 5 2 2 1 0 1 -0 -0 1 2 3 2 2 3
2 4 4 3 1 1 1 2 -0 -0 0 -1 -1 4 -0 1 1 -1 -4 -5 -3 1 5 13 23 21 17 22 -2 1 0 6 -0 0 3 3 3 3 2 3 6 5 3 2 3 3 3 3 3 3 3 3 3 3
-2 -1 -1 -0 3 -2 -3 -5 -7 -4 -3 -6 -3 6 -4 -2 -3 -4 -2 -1 4 5 5 12 13 13 32 11 2 -3 10 11 12 14 8 13 12 9 16 10 2 1 1 -0 -0 1 1 2 2 1 0 -0 -2 -0
0 3 3 0 -6 -2 6 14 6 -0 -4 -3 -9 -0 -3 -6 -6 -6 -1 -2 1 2 7 -1 -4 -3 17 -7 -11 31 16 -0 2 3 3 4 6 7 5 5 5 2 -0 -0 -1 0 1 1 -0 -1 -1 -1 1 2
0 2 3 3 4 5 10 14 11 2 -1 -2 1 -2 -4 -7 -6 -0 3 4 2 4 8 -2 4 2 -1 4 1 1 -1 1 -0 -0 -0 -1 -2 2 4 3 0 -0 -0 -0 0 1 1 1 1 1 1 1 2 2
2 3 2 4 6 11 3 2 4 3 1 -1 -2 -3 1 -8 -2 3 1 3 6 2 0 -2 2 -0 -1 2 1 1 1 -1 -0 1 2 1 1 2 2 1 1 -0 -1 -1 -0 0 -0 -1 -1 -1 -1 -0 -0 -0
1 1 3 5 4 2 3 -4 8 8 4 9 -2 -2 2 4 7 5 -0 2 2 -0 1 -2 -1 0 -1 -1 -0 -1 -0 0 -0 -0 -0 -1 -1 -1 -1 -2 -3 -3 -3 -4 -3 -4 -4 -4 -5 -5 -5 -4 -3 -2
-1 -2 -2 -1 2 5 1 -3 -1 -2 -4 -2 -4 -5 -8 -7 -5 -2 2 0 -2 -4 -3 2 2 2 -0 -1 -1 -0 0 0 -1 -1 -1 -0 -0 0 0 -0 -0 -1 -1 -2 -2 -2 -2 -2 -2 -3 -2 -3 -3 -1
-1 0 -1 1 -2 -0 -0 3 -0 -3 -2 -7 -8 -6 -3 -2 -2 -5 -4 -5 -1 3 -0 -2 -1 -0 -0 -0 -0 -1 -1 -0 -0 -1 -0 -1 -2 -2 -2 -2 -2 -1 -1 0 1 1 1 1 -1 0 1 -2 -6 -1
1 1 3 1 1 -0 -5 -2 -2 2 -1 -2 -1 3 1 1 2 5 -0 -2 1 3 4 4 2 1 -0 -1 -1 -1 -1 -2 -2 -1 -1 -1 0 0 -0 -0 -0 -0 -0 -0 -0 -1 -0 -1 -1 -3 -3 -0 0 2
-0 -1 -1 -1 -2 -1 1 -0 2 3 2 1 1 2 -0 1 0 -1 1 1 1 0 -0 -0 -1 -2 -2 -2 -2 -1 -0 1 1 1 1 1 2 2 1 1 0 0 0 -1 -2 -1 -2 -1 -0 -2 -2 -2 -2 -2
1 -0 2 -0 -0 -2 -1 -2 -1 -1 -2 -1 -2 -1 -1 -1 -2 -2 -1 -2 -2 -2 -2 -2 -1 -2 -3 -4 -4 -4 -3 -2 -1 -1 -1 -0 -0 -4 -5 -3 -1 -2 -2 -0 -2 -3 -2 -2 -0 -0 -2 0 -1 -1
2 0 1 -0 -0 -0 -0 -1 -2 -2 -1 -1 -1 -1 -0 -1 -1 -2 -1 -2 -2 -3 -3 -2 -1 -0 1 1 2 2 0 -1 -0 -1 -2 -2 -3 -2 2 5 0 -2 -1 -0 1 0 -0 -0 -0 1 1 -0 -0 -1
-0 -1 -1 -1 1 2 1 1 1 1 1 -0 -1 -2 -1 -1 -2 -3 -2 -2 -1 -0 0 -1 -1 -2 -2 -3 -3 -2 -0 -1 -1 -2 -2 -2 -2 -2 -1 -2 -1 -1 -1 -1 -1 -1 -0 -0 -0 -1 -1 -1 -1 -1
-1 -0 0 0 0 -1 0 0 -0 -1 -0 -0 -1 -1 -1 -0 -0 -1 -1 -1 -2 -2 -2 -2 -2 -2 -2 -2 -3 -3 -3 -2 -1 -1 -1 -1 3 -0 -2 -2 -1 -0 -0 0 0 0 -1 -1 -1 -1 -1 -1 -1 -1
1 0 -0 -1 -1 -1 -2 -2 -1 -1 -1 -1 -1 -1 -2 -1 -2 -2 -2 -2 -2 -3 -3 -3 -3 -2 -2 -3 -2 -1 -0 0 0 2 4 3 -4 -4 -2 -1 -1 0 0 0 -0 -0 -1 -1 -0 -0 -0 -1 -1 -1
0 -0 -1 -1 -2 -2 -2 -2 -2 -1 -1 -1 -0 -2 -1 -2 -2 -2 -2 -2 -2 -2 -2 -3 -3 -3 -3 -3 -2 0 -1 -1 -0 -0 -1 -2 -2 -1 -0 -1 -1 -1 -1 -1 -0 -0 -0 -0 -0 -1 -1 -2 -3 -3
2 -0 -2 -1 -2 -2 -2 -1 -1 -1 -2 -1 -1 -2 -2 -2 -2 -1 -2 -2 -3 -3 -4 -4 -3 -2 -2 1 1 -4 -0 2 1 1 1 -0 -0 0 1 0 -1 -1 -0 -0 -1 -1 -1 -0 -0 -1 -1 -1 -0 -0
-1 -1 -1 -1 -1 -1 -1 -1 -1 -2 -1 -0 -1 -1 -2 -1 -1 -2 -3 -4 -4 -4 -5 -3 -4 -3 -2 -1 -1 -0 -0 -1 0 -0 -0 0 1 1 0 0 0 0 -0 0 1 1 0 -0 -0 -0 -0 -1 -1 -0
-0 -1 -1 -2 -2 -2 -1 1 1 0 1 0 -1 -0 -1 -2 -2 -3 -3 -4 -5 -4 -4 -3 -2 -2 -2 -2 -2 -1 -1 -1 -1 -1 -0 0 0 1 1 1 -0 -1 -0 -0 -0 -0 0 0 0 0 -0 -0 -1 -0
Height
5350 5345 5340 5335 5332 5329 5327 5326 5325 5324 5324 5327 5330 5335 5342 5353 5363 5372 5386 5401 5411 5421 5436 5443 5455 5465 5474 5478 5489 5505 5504 5511 5518 5525 5532 5540 5545 5554 5561 5568 5570 5575 5578 5585 5594 5598 5605 5608 5614 5622 5628 5634 5637 5638
5335 5331 5327 5323 5319 5315 5312 5310 5307 5305 5305 5307 5310 5314 5320 5333 5348 5361 5373 5391 5402 5411 5427 5439 5447 5457 5466 5476 5483 5486 5495 5505 5510 5520 5526 5535 5540 5550 5555 5557 5562 5569 5574 5577 5583 5590 5596 5602 5604 5610 5611 5618 5623 5624
5327 5322 5317 5311 5305 5301 5300 5296 5291 5287 5287 5292 5296 5298 5306 5321 5338 5353 5367 5383 5395 5406 5423 5433 5444 5452 5460 5467 5473 5479 5488 5496 5502 5513 5520 5526 5531 5542 5546 5552 5557 5560 5566 5572 5578 5584 5586 5590 5596 5602 5605 5608 5611 5613
5320 5314 5309 5304 5300 5297 5293 5287 5279 5276 5276 5283 5293 5299 5307 5321 5337 5352 5368 5385 5396 5406 5416 5427 5434 5446 5454 5460 5466 5473 5483 5492 5500 5506 5512 5519 5527 5532 5539 5548 5551 5557 5560 5567 5574 5575 5579 5583 5588 5589 5593 5598 5602 5607
5313 5308 5305 5303 5299 5295 5291 5287 5279 5277 5280 5287 5297 5305 5315 5327 5341 5356 5372 5387 5398 5410 5418 5428 5435 5443 5450 5456 5464 5471 5479 5488 5495 5501 5507 5515 5521 5528 5534 5542 5545 5554 5559 5563 5567 5566 5571 5577 5577 5580 5583 5587 5592 5597
5310 5304 5302 5303 5301 5298 5294 5292 5288 5286 5289 5297 5306 5315 5325 5336 5349 5361 5373 5385 5400 5410 5420 5427 5434 5440 5447 5452 5459 5466 5475 5484 5490 5496 5503 5511 5518 5525 5529 5535 5541 5548 5551 5552 5556 5561 5566 5572 5570 5572 5577 5579 5583 5588
5312 5308 5307 5306 5305 5304 5302 5301 5299 5300 5303 5310 5319 5328 5336 5348 5360 5373 5385 5397 5404 5411 5418 5426 5432 5439 5444 5451 5457 5463 5471 5476 5484 5491 5497 5506 5514 5520 5524 5527 5532 5539 5545 5550 5551 5557 5562 5564 5566 5567 5570 5572 5576 5578
5323 5318 5315 5314 5313 5313 5313 5313 5313 5315 5319 5325 5332 5341 5350 5359 5368 5378 5388 5398 5406 5413 5420 5426 5432 5439 5445 5450 5455 5460 5466 5472 5479 5485 5496 5503 5510 5514 5515 5521 5529 5534 5540 5544 5546 5549 5553 5556 5558 5561 5565 5565 5565 5567
5333 5331 5328 5327 5325 5326 5327 5327 5329 5332 5335 5340 5347 5354 5361 5370 5379 5387 5394 5401 5408 5415 5420 5426 5432 5436 5441 5446 5452 5456 5463 5467 5477 5483 5494 5502 5504 5506 5511 5517 5523 5529 5532 5534 5537 5540 5544 5545 5548 5551 5553 5555 5557 5559
5341 5341 5341 5340 5340 5339 5340 5342 5345 5347 5350 5355 5361 5365 5371 5377 5384 5390 5397 5402 5407 5414 5421 5425 5429 5434 5439 5444 5450 5457 5461 5468 5475 5482 5489 5493 5497 5502 5508 5513 5518 5522 5525 5529 5530 5533 5536 5537 5539 5541 5541 5542 5543 5546
5348 5349 5349 5349 5350 5351 5352 5354 5357 5359 5362 5365 5369 5373 5378 5383 5389 5396 5401 5404 5410 5416 5421 5426 5431 5434 5436 5440 5446 5453 5458 5465 5472 5481 5486 5489 5493 5497 5502 5508 5513 5517 5520 5522 5525 5527 5528 5528 5529 5531 5532 5532 5533 5534
5353 5355 5356 5357 5358 5360 5362 5364 5366 5369 5372 5376 5379 5383 5387 5391 5396 5400 5403 5407 5412 5418 5423 5427 5431 5434 5438 5442 5447 5452 5457 5466 5473 5481 5484 5485 5488 5492 5498 5504 5509 5511 5514 5515 5517 5519 5519 5520 5520 5521 5521 5522 5523 5523
5358 5359 5361 5362 5364 5365 5368 5370 5373 5376 5379 5382 5385 5387 5390 5395 5399 5402 5405 5408 5414 5419 5425 5429 5434 5438 5441 5445 5450 5456 5464 5470 5477 5478 5477 5479 5484 5491 5496 5500 5503 5504 5506 5508 5509 5510 5511 5511 5511 5511 5511 5512 5513 5513
5363 5364 5366 5367 5369 5371 5373 5376 5379 5381 5384 5387 5389 5391 5392 5397 5402 5405 5408 5413 5420 5425 5426 5429 5435 5440 5446 5451 5456 5461 5465 5470 5472 5471 5473 5479 5484 5489 5492 5495 5497 5499 5500 5501 5501 5502 5502 5501 5500 5501 5501 5501 5502 5502
5370 5371 5372 5373 5374 5375 5377 5379 5381 5383 5385 5388 5393 5394 5395 5400 5405 5410 5415 5421 5423 5425 5429 5433 5438 5442 5447 5453 5457 5462 5464 5466 5467 5469 5475 5480 5482 5485 5488 5491 5493 5494 5494 5494 5494 5494 5494 5493 5493 5492 5491 5490 5490 5490
5375 5376 5376 5378 5379 5379 5380 5381 5383 5385 5386 5389 5393 5396 5398 5403 5409 5417 5422 5425 5427 5431 5433 5436 5441 5445 5448 5452 5458 5461 5464 5464 5466 5468 5473 5478 5481 5482 5483 5485 5486 5487 5487 5488 5487 5487 5486 5484 5483 5482 5481 5480 5479 5478
5380 5382 5383 5384 5385 5384 5384 5385 5385 5386 5389 5391 5393 5396 5401 5407 5415 5422 5426 5430 5433 5436 5441 5445 5447 5450 5453 5457 5461 5464 5465 5466 5467 5469 5472 5475 5477 5478 5479 5480 5480 5480 5480 5480 5479 5478 5477 5476 5474 5473 5472 5470 5469 5467
5389 5390 5390 5389 5389 5388 5388 5386 5386 5387 5389 5393 5397 5400 5405 5413 5423 5428 5432 5435 5439 5441 5446 5448 5451 5455 5456 5458 5461 5462 5464 5465 5467 5469 5470 5471 5473 5473 5474 5474 5474 5473 5472 5471 5470 5469 5467 5466 5464 5462 5460 5458 5455 5453
5396 5397 5397 5397 5397 5396 5394 5392 5392 5392 5395 5399 5403 5407 5414 5424 5429 5433 5436 5439 5443 5446 5450 5452 5453 5455 5457 5458 5459 5460 5461 5462 5464 5465 5465 5466 5467 5467 5467 5466 5465 5464 5462 5461 5459 5457 5455 5453 5451 5449 5447 5444 5441 5437
5403 5403 5403 5404 5404 5404 5405 5403 5404 5406 5405 5408 5412 5416 5424 5430 5434 5437 5440 5444 5447 5450 5452 5453 5454 5455 5456 5457 5458 5459 5460 5460 5461 5461 5461 5461 5461 5460 5459 5457 5456 5454 5452 5450 5448 5445 5442 5440 5437 5434 5432 5429 5425 5421
5410 5411 5411 5411 5412 5414 5415 5415 5416 5418 5420 5423 5426 5432 5436 5439 5442 5445 5448 5449 5452 5453 5454 5454 5455 5456 5456 5457 5457 5457 5456 5456 5456 5456 5455 5454 5452 5450 5448 5446 5444 5441 5438 5436 5433 5430 5426 5423 5419 5416 5413 5409 5406 5401
5417 5418 5419 5420 5420 5422 5423 5425 5426 5428 5431 5433 5437 5440 5444 5446 5448 5450 5452 5455 5455 5456 5456 5457 5457 5457 5457 5457 5456 5455 5454 5453 5451 5449 5447 5445 5442 5439 5436 5433 5430 5426 5422 5418 5414 5411 5407 5403 5399 5396 5393 5388 5384 5380
5423 5425 5426 5427 5429 5429 5431 5432 5434 5436 5438 5439 5442 5445 5447 5449 5451 5453 5454 5454 5456 5456 5456 5456 5455 5454 5453 5452 5450 5449 5447 5444 5441 5439 5435 5431 5428 5423 5419 5415 5411 5406 5402 5398 5395 5391 5388 5384 5380 5376 5373 5370 5366 5363
5429 5430 5431 5432 5434 5435 5436 5437 5440 5442 5443 5445 5446 5448 5449 5451 5452 5453 5454 5455 5455 5454 5453 5452 5451 5449 5448 5445 5443 5439 5436 5432 5428 5424 5420 5416 5411 5406 5401 5397 5393 5389 5385 5381 5378 5375 5371 5369 5365 5360 5357 5354 5350 5346
5434 5434 5436 5436 5437 5439 5441 5442 5444 5445 5446 5448 5449 5450 5451 5452 5452 5453 5453 5452 5451 5450 5448 5446 5444 5441 5439 5436 5433 5429 5425 5420 5415 5410 5405 5400 5394 5388 5383 5379 5376 5372 5369 5366 5362 5359 5356 5353 5350 5346 5342 5340 5336 5333
5434 5435 5438 5438 5440 5442 5443 5445 5446 5447 5448 5449 5449 5449 5449 5449 5449 5448 5448 5446 5445 5443 5441 5438 5435 5432 5428 5424 5420 5415 5410 5404 5398 5392 5387 5381 5376 5372 5369 5365 5360 5357 5354 5351 5349 5346 5344 5341 5339 5336 5333 5331 5328 5325
5435 5437 5439 5440 5441 5443 5444 5445 5446 5446 5447 5447 5447 5447 5446 5445 5444 5443 5441 5439 5437 5435 5432 5428 5425 5421 5416 5412 5407 5401 5394 5388 5382 5376 5371 5367 5363 5359 5356 5354 5351 5349 5346 5344 5341 5339 5336 5334 5332 5330 5327 5324 5321 5317
5436 5437 5440 5441 5442 5442 5443 5444 5444 5444 5444 5444 5443 5442 5441 5440 5439 5437 5434 5431 5429 5426 5422 5419 5414 5410 5404 5397 5390 5384 5378 5373 5368 5363 5359 5357 5355 5351 5349 5347 5344 5342 5339 5336 5334 5333 5331 5329 5327 5324 5321 5317 5313 5309
5436 5437 5439 5439 5440 5441 5441 5441 5441 5441 5440 5439 5438 5437 5435 5433 5431 5429 5426 5424 5420 5417 5413 5408 5402 5396 5389 5382 5375 5369 5363 5359 5355 5353 5350 5347 5345 5344 5342 5339 5337 5335 5334 5332 5331 5329 5327 5324 5321 5318 5314 5310 5305 5301
5435 5436 5437 5437 5438 5438 5438 5438 5437 5436 5435 5434 5432 5430 5428 5426 5424 5421 5418 5415 5411 5407 5402 5395 5388 5381 5374 5367 5360 5355 5350 5346 5342 5340 5338 5337 5336 5335 5334 5333 5332 5331 5330 5329 5327 5324 5321 5318 5314 5310 5306 5301 5296 5291
5432 5432 5433 5433 5433 5433 5433 5432 5431 5430 5428 5427 5425 5423 5421 5419 5416 5413 5409 5406 5401 5395 5389 5382 5375 5368 5362 5355 5349 5341 5336 5332 5329 5328 5328 5328 5328 5328 5328 5329 5329 5328 5327 5324 5322 5318 5315 5311 5307 5302 5298 5293 5288 5282
5428 5428 5428 5428 5428 5428 5427 5426 5425 5423 5422 5420 5417 5415 5413 5410 5407 5404 5400 5395 5390 5384 5376 5370 5364 5357 5351 5345 5339 5333 5328 5324 5321 5321 5322 5323 5324 5326 5326 5327 5326 5324 5322 5319 5316 5312 5308 5304 5299 5294 5289 5284 5278 5273
5422 5423 5423 5422 5422 5421 5420 5420 5418 5416 5414 5412 5410 5407 5404 5401 5398 5394 5389 5384 5378 5372 5366 5360 5354 5349 5343 5339 5336 5333 5330 5327 5325 5324 5324 5324 5325 5325 5325 5324 5322 5319 5316 5313 5309 5305 5301 5296 5291 5286 5280 5275 5268 5262